GW5223 Weather Reports


Display with metric or nautical units.
time (UTC)temp
F
wind
direction
speed
MPH
gust
MPH
rain 1hr
in
rain 24hr
in
rain mn
in
humidity
%
barometer
mb
20260506172307 67 186 3.0 13.0 0.01 0.05 0.05 82 1007.8
20260506171803 67 237 2.0 5.0 0.01 0.05 0.05 83 1007.7
20260506171303 67 173 2.0 7.0 0.02 0.05 0.05 84 1007.6
20260506170804 67 137 2.0 5.0 0.02 0.05 0.05 84 1007.7
20260506170304 66 176 2.0 5.0 0.02 0.05 0.05 85 1007.9
20260506165804 66 179 0.0 3.0 0.03 0.05 0.05 85 1007.9
20260506165305 66 194 1.0 5.0 0.03 0.05 0.05 85 1008.0
20260506164805 66 183 1.0 6.0 0.03 0.05 0.05 85 1008.0
20260506164304 66 173 1.0 3.0 0.04 0.05 0.05 84 1008.2
20260506163803 65 164 1.0 3.0 0.04 0.05 0.05 84 1008.5
20260506163304 65 147 0.0 3.0 0.04 0.05 0.05 84 1008.6
20260506161804 65 202 2.0 7.0 0.04 0.04 0.04 83 1009.2
20260506161304 65 205 1.0 6.0 0.03 0.03 0.03 83 1009.3
20260506160804 65 193 1.0 3.0 0.03 0.03 0.03 82 1009.3
20260506160304 66 172 1.0 3.0 0.03 0.03 0.03 82 1009.4
20260506155804 66 224 1.0 3.0 0.02 0.02 0.02 80 1009.4
20260506155306 66 217 0.0 3.0 0.02 0.02 0.02 79 1009.5
20260506154303 67 166 1.0 3.0 0.01 0.01 0.01 76 1009.4
20260506153804 68 234 2.0 6.0 0.01 0.01 0.01 73 1009.4
20260506153305 68 164 1.0 7.0 0.01 0.01 0.01 71 1009.3
20260506152804 69 238 3.0 12.0 0.00 0.00 0.00 69 1009.2
20260506152305 69 195 2.0 10.0 0.00 0.00 0.00 67 1009.1
20260506151804 69 188 3.0 8.0 0.00 0.00 0.00 67 1009.2
20260506151304 69 193 3.0 13.0 0.00 0.00 0.00 68 1009.1
20260506150804 69 312 2.0 5.0 0.00 0.00 0.00 68 1009.2
20260506145804 69 207 4.0 10.0 0.00 0.00 0.00 67 1009.3
20260506145306 69 261 2.0 7.0 0.00 0.00 0.00 66 1009.4
20260506144804 69 184 3.0 7.0 0.00 0.00 0.00 65 1009.3
20260506144304 69 215 2.0 8.0 0.00 0.00 0.00 66 1009.4
20260506143805 69 176 3.0 9.0 0.00 0.00 0.00 65 1009.4
20260506143304 69 177 2.0 12.0 0.00 0.00 0.00 65 1009.4
20260506142804 70 233 3.0 12.0 0.00 0.00 0.00 65 1009.3
20260506142306 70 223 3.0 12.0 0.00 0.00 0.00 65 1009.4
20260506141804 70 158 3.0 10.0 0.00 0.00 0.00 65 1009.4
20260506141304 70 264 2.0 6.0 0.00 0.00 0.00 67 1009.4
20260506140805 69 287 1.0 6.0 0.00 0.00 0.00 68 1009.3
20260506140303 69 188 2.0 8.0 0.00 0.00 0.00 67 1009.3
20260506135805 69 213 3.0 10.0 0.00 0.00 0.00 67 1009.3
20260506135306 69 210 2.0 9.0 0.00 0.00 0.00 68 1009.4
20260506134804 68 233 2.0 6.0 0.00 0.00 0.00 68 1009.3
20260506134305 69 167 2.0 9.0 0.00 0.00 0.00 67 1009.3
20260506133804 69 275 3.0 12.0 0.00 0.00 0.00 67 1009.4
20260506132804 69 232 5.0 14.0 0.00 0.00 0.00 67 1009.3
20260506132307 69 178 3.0 10.0 0.00 0.00 0.00 67 1009.3
20260506131804 69 254 2.0 7.0 0.00 0.00 0.00 68 1009.5
20260506130804 69 172 2.0 10.0 0.00 0.00 0.00 69 1009.6
20260506125804 68 206 3.0 9.0 0.00 0.00 0.00 68 1009.5
20260506125306 68 172 2.0 13.0 0.00 0.00 0.00 69 1009.5
20260506124805 68 194 3.0 12.0 0.00 0.00 0.00 69 1009.6
20260506124305 68 182 4.0 12.0 0.00 0.00 0.00 69 1009.4
20260506122804 67 181 5.0 16.0 0.00 0.00 0.00 71 1009.3
20260506122306 67 164 2.0 9.0 0.00 0.00 0.00 72 1009.2
20260506121804 66 181 4.0 12.0 0.00 0.00 0.00 72 1009.3
20260506121304 66 188 6.0 17.0 0.00 0.00 0.00 72 1009.4
20260506120303 66 204 5.0 12.0 0.00 0.00 0.00 72 1009.4
20260506115803 66 209 6.0 20.0 0.00 0.00 0.00 72 1009.4
20260506114804 66 175 4.0 14.0 0.00 0.00 0.00 72 1009.5
20260506114304 66 174 3.0 9.0 0.00 0.00 0.00 73 1009.5
20260506113804 66 153 5.0 12.0 0.00 0.00 0.00 73 1009.5
20260506113305 66 203 5.0 12.0 0.00 0.00 0.00 73 1009.6
20260506112805 66 217 4.0 10.0 0.00 0.00 0.00 73 1009.7
20260506112306 66 185 5.0 12.0 0.00 0.00 0.00 73 1009.5
20260506111804 66 177 5.0 14.0 0.00 0.00 0.00 74 1009.5
20260506110804 65 191 5.0 12.0 0.00 0.00 0.00 75 1009.5
20260506105804 65 183 3.0 14.0 0.00 0.00 0.00 75 1009.6
20260506105305 65 190 4.0 12.0 0.00 0.00 0.00 76 1009.5
20260506104804 65 179 3.0 12.0 0.00 0.00 0.00 76 1009.4
20260506104304 64 185 3.0 12.0 0.00 0.00 0.00 77 1009.3
20260506103804 64 170 3.0 12.0 0.00 0.00 0.00 77 1009.3
20260506103305 64 181 2.0 13.0 0.00 0.00 0.00 77 1009.3
20260506102804 64 198 6.0 12.0 0.00 0.00 0.00 77 1009.3
20260506102305 64 184 3.0 13.0 0.00 0.00 0.00 78 1009.4
20260506101304 64 180 3.0 12.0 0.00 0.00 0.00 78 1009.5
20260506100804 64 175 3.0 10.0 0.00 0.00 0.00 77 1009.4
20260506100304 64 171 1.0 10.0 0.00 0.00 0.00 77 1009.4
20260506095804 64 190 3.0 12.0 0.00 0.00 0.00 77 1009.3
20260506095305 64 181 4.0 12.0 0.00 0.00 0.00 77 1009.3
20260506094804 64 174 5.0 12.0 0.00 0.00 0.00 77 1009.3
20260506094304 64 189 5.0 12.0 0.00 0.00 0.00 77 1009.2
20260506093304 64 175 4.0 12.0 0.00 0.00 0.00 77 1009.2
20260506092804 64 180 6.0 12.0 0.00 0.00 0.00 78 1009.2
20260506091804 64 195 3.0 12.0 0.00 0.00 0.00 78 1009.2
20260506091304 64 153 3.0 7.0 0.00 0.00 0.00 78 1009.4
20260506090805 64 186 2.0 7.0 0.00 0.00 0.00 78 1009.4
20260506090304 64 183 4.0 12.0 0.00 0.00 0.00 78 1009.4
20260506085804 64 170 3.0 8.0 0.00 0.00 0.00 78 1009.4
20260506085306 64 172 2.0 12.0 0.00 0.00 0.00 78 1009.3
20260506084805 64 172 3.0 10.0 0.00 0.00 0.00 78 1009.4
20260506084304 64 187 4.0 10.0 0.00 0.00 0.00 78 1009.5
20260506083804 64 175 4.0 12.0 0.00 0.00 0.00 78 1009.5
20260506083304 64 179 3.0 15.0 0.00 0.00 0.00 78 1009.5
20260506082804 64 173 4.0 8.0 0.00 0.00 0.00 78 1009.5
20260506082305 64 201 3.0 9.0 0.00 0.00 0.00 78 1009.5
20260506081804 65 163 3.0 8.0 0.00 0.00 0.00 77 1009.5
20260506081304 65 193 2.0 6.0 0.00 0.00 0.00 77 1009.6
20260506080305 65 164 2.0 8.0 0.00 0.00 0.00 76 1009.6
20260506072804 66 182 3.0 8.0 0.00 0.00 0.00 76 1009.6
20260506072306 66 200 3.0 9.0 0.00 0.00 0.00 75 1009.6
20260506071805 66 211 2.0 8.0 0.00 0.00 0.00 75 1009.6
20260506070804 66 173 3.0 12.0 0.00 0.00 0.00 75 1009.7
20260506070305 66 183 3.0 8.0 0.00 0.00 0.00 75 1009.7
20260506062306 66 179 3.0 8.0 0.00 0.00 0.00 74 1009.8
20260506061805 66 177 1.0 6.0 0.00 0.00 0.00 73 1009.8
20260506060804 67 184 5.0 12.0 0.00 0.00 0.00 72 1009.9
20260506060304 67 224 3.0 7.0 0.00 0.00 0.00 72 1009.9
20260506051304 67 178 3.0 12.0 0.00 0.00 0.00 70 1010.2
20260506050804 67 182 1.0 6.0 0.00 0.00 0.00 70 1010.3
20260506050305 67 182 1.0 5.0 0.00 0.00 0.00 69 1010.3
20260506044805 67 168 2.0 7.0 0.00 0.00 0.00 68 1010.4
20260506044304 67 187 4.0 15.0 0.00 0.00 0.00 68 1010.5
20260506043804 67 176 2.0 8.0 0.00 0.00 0.00 68 1010.4
20260506043304 68 172 2.0 7.0 0.00 0.00 0.00 67 1010.5
20260506042804 68 214 3.0 12.0 0.00 0.00 0.00 67 1010.5
20260506042305 68 194 3.0 8.0 0.00 0.00 0.00 67 1010.5
20260506041805 68 212 3.0 9.0 0.00 0.00 0.00 67 1010.5
20260506041304 68 191 1.0 12.0 0.00 0.00 0.00 66 1010.4
20260506040908 68 171 3.0 9.0 0.00 0.00 0.00 66 1010.3
20260506040305 68 157 2.0 9.0 0.00 0.00 0.00 66 1010.3
20260506035804 68 168 3.0 9.0 0.00 0.00 0.00 66 1010.2
20260506034804 68 183 4.0 9.0 0.00 0.00 0.00 65 1010.2
20260506034304 68 220 2.0 8.0 0.00 0.00 0.00 64 1010.2
20260506033805 68 169 2.0 7.0 0.00 0.00 0.00 64 1010.2
20260506033304 69 157 2.0 8.0 0.00 0.00 0.00 64 1010.2
20260506032805 69 168 2.0 9.0 0.00 0.00 0.00 64 1010.2
20260506032305 69 187 5.0 10.0 0.00 0.00 0.00 63 1010.2
20260506031804 69 204 2.0 12.0 0.00 0.00 0.00 63 1010.3
20260506031305 69 213 4.0 9.0 0.00 0.00 0.00 62 1010.3
20260506030803 69 190 4.0 10.0 0.00 0.00 0.00 62 1010.2
20260506025804 69 174 5.0 10.0 0.00 0.00 0.00 62 1010.3
20260506025305 69 177 3.0 6.0 0.00 0.00 0.00 61 1010.2
20260506024804 69 174 3.0 7.0 0.00 0.00 0.00 61 1010.3
20260506024304 69 195 5.0 14.0 0.00 0.00 0.00 60 1010.3
20260506023805 70 172 3.0 7.0 0.00 0.00 0.00 60 1010.3
20260506022804 70 181 6.0 14.0 0.00 0.00 0.00 60 1010.3
20260506022306 70 176 3.0 8.0 0.00 0.00 0.00 60 1010.3
20260506021804 70 233 3.0 7.0 0.00 0.00 0.00 59 1010.3
20260506020804 70 182 3.0 6.0 0.00 0.00 0.00 59 1010.2
20260506020305 70 188 3.0 8.0 0.00 0.00 0.00 59 1010.3
20260506015804 70 178 5.0 12.0 0.00 0.00 0.00 59 1010.3
20260506015306 70 180 3.0 12.0 0.00 0.00 0.00 59 1010.3
20260506014804 70 177 4.0 13.0 0.00 0.00 0.00 59 1010.2
20260506014304 70 189 4.0 15.0 0.00 0.00 0.00 59 1010.1
20260506013804 71 191 2.0 6.0 0.00 0.00 0.00 59 1010.1
20260506013304 71 178 5.0 10.0 0.00 0.00 0.00 58 1010.0
20260506012804 71 190 3.0 10.0 0.00 0.00 0.00 58 1010.1
20260506011804 71 197 5.0 17.0 0.00 0.00 0.00 57 1010.0
20260506011304 71 176 3.0 9.0 0.00 0.00 0.00 57 1009.9
20260506010306 72 171 3.0 10.0 0.00 0.00 0.00 56 1009.8
20260506005804 72 207 5.0 13.0 0.00 0.00 0.00 55 1009.7
20260506005306 73 197 2.0 9.0 0.00 0.00 0.00 54 1009.7
20260506004304 73 177 5.0 12.0 0.00 0.00 0.00 52 1009.6
20260506003805 74 183 3.0 7.0 0.00 0.00 0.00 50 1009.6
20260506003304 74 183 4.0 10.0 0.00 0.00 0.00 48 1009.5
20260506002804 75 176 4.0 8.0 0.00 0.00 0.00 46 1009.3
20260506002306 75 215 2.0 9.0 0.00 0.00 0.00 46 1009.3
20260506000804 76 178 5.0 15.0 0.00 0.00 0.00 44 1009.1
20260506000304 76 192 3.0 12.0 0.00 0.00 0.00 43 1009.0
20260505235804 76 180 4.0 13.0 0.00 0.00 0.00 43 1009.0
20260505235305 76 175 4.0 10.0 0.00 0.00 0.00 43 1009.0
20260505234804 76 171 3.0 7.0 0.00 0.00 0.00 42 1008.9
20260505234304 77 290 1.0 5.0 0.00 0.00 0.00 42 1008.9
20260505233804 77 235 3.0 8.0 0.00 0.00 0.00 41 1008.8
20260505232804 77 201 2.0 12.0 0.00 0.00 0.00 41 1008.7
20260505232305 78 218 5.0 16.0 0.00 0.00 0.00 40 1008.7
20260505231804 78 221 4.0 8.0 0.00 0.00 0.00 40 1008.7
20260505231304 78 201 5.0 9.0 0.00 0.00 0.00 41 1008.7
20260505230804 78 157 2.0 7.0 0.00 0.00 0.00 41 1008.6
20260505230304 79 201 1.0 8.0 0.00 0.00 0.00 40 1008.6
20260505225804 79 309 3.0 13.0 0.00 0.00 0.00 39 1008.5
20260505225306 80 180 3.0 9.0 0.00 0.00 0.00 38 1008.4
20260505224304 80 193 3.0 9.0 0.00 0.00 0.00 38 1008.3
20260505223806 80 221 3.0 8.0 0.00 0.00 0.00 37 1008.4
20260505223305 80 199 4.0 12.0 0.00 0.00 0.00 36 1008.2
20260505222804 80 193 4.0 10.0 0.00 0.00 0.00 35 1008.2
20260505222306 80 219 5.0 12.0 0.00 0.00 0.00 34 1008.0
20260505221805 81 206 5.0 14.0 0.00 0.00 0.00 33 1008.1
20260505221303 81 205 5.0 14.0 0.00 0.00 0.00 33 1008.2
20260505220804 82 186 2.0 17.0 0.00 0.00 0.00 32 1008.1
20260505220305 82 310 2.0 12.0 0.00 0.00 0.00 32 1007.9
20260505215804 82 187 6.0 16.0 0.00 0.00 0.00 31 1007.9
20260505215305 82 201 5.0 17.0 0.00 0.00 0.00 31 1008.0
20260505214804 83 204 3.0 10.0 0.00 0.00 0.00 31 1007.9
20260505214304 83 222 2.0 7.0 0.00 0.00 0.00 32 1008.0
20260505213804 83 162 3.0 9.0 0.00 0.00 0.00 30 1007.8
20260505213305 83 232 3.0 20.0 0.00 0.00 0.00 30 1008.0
20260505212805 84 208 3.0 10.0 0.00 0.00 0.00 30 1008.0
20260505212305 84 195 5.0 18.0 0.00 0.00 0.00 30 1008.0
20260505211804 84 207 4.0 9.0 0.00 0.00 0.00 28 1008.0
20260505211305 84 190 4.0 10.0 0.00 0.00 0.00 29 1007.9
20260505210804 84 228 3.0 12.0 0.00 0.00 0.00 29 1007.9
20260505205805 84 226 6.0 15.0 0.00 0.00 0.00 27 1007.8
20260505205305 85 221 2.0 12.0 0.00 0.00 0.00 29 1007.8
20260505204805 85 325 3.0 10.0 0.00 0.00 0.00 29 1007.9
20260505204306 85 209 5.0 15.0 0.00 0.00 0.00 28 1007.7
20260505203804 85 198 3.0 13.0 0.00 0.00 0.00 29 1007.8
20260505203304 85 197 5.0 18.0 0.00 0.00 0.00 29 1007.8
20260505201804 85 215 3.0 12.0 0.00 0.00 0.00 32 1007.8
20260505201304 85 200 2.0 13.0 0.00 0.00 0.00 33 1007.8
20260505200804 85 205 6.0 18.0 0.00 0.00 0.00 32 1007.9
20260505200305 85 171 5.0 23.0 0.00 0.00 0.00 33 1007.9
20260505195804 85 215 3.0 14.0 0.00 0.00 0.00 33 1007.8
20260505195305 85 257 2.0 8.0 0.00 0.00 0.00 34 1008.0
20260505194804 85 243 4.0 12.0 0.00 0.00 0.00 32 1008.0
20260505194304 85 206 4.0 13.0 0.00 0.00 0.00 34 1008.0
20260505193304 85 202 4.0 18.0 0.00 0.00 0.00 34 1008.1
20260505192804 85 207 3.0 20.0 0.00 0.00 0.00 32 1008.2
20260505192305 85 186 7.0 16.0 0.00 0.00 0.00 33 1008.3
20260505191804 85 224 5.0 17.0 0.00 0.00 0.00 34 1008.2
20260505191304 85 200 6.0 14.0 0.00 0.00 0.00 34 1008.4
20260505190804 85 176 2.0 22.0 0.00 0.00 0.00 36 1008.3
20260505190305 85 168 2.0 12.0 0.00 0.00 0.00 37 1008.4
20260505185804 85 173 3.0 12.0 0.00 0.00 0.00 35 1008.6
20260505185305 85 223 3.0 12.0 0.00 0.00 0.00 36 1008.7
20260505184804 85 245 3.0 16.0 0.00 0.00 0.00 37 1008.7
20260505184305 85 190 5.0 12.0 0.00 0.00 0.00 36 1008.8
20260505183305 85 210 2.0 8.0 0.00 0.00 0.00 37 1009.0
20260505182804 85 150 2.0 12.0 0.00 0.00 0.00 39 1009.0
20260505182306 85 313 3.0 12.0 0.00 0.00 0.00 39 1009.1
20260505181804 85 262 2.0 8.0 0.00 0.00 0.00 38 1009.1
20260505181306 85 204 3.0 10.0 0.00 0.00 0.00 39 1009.2
20260505180805 84 228 3.0 10.0 0.00 0.00 0.00 37 1009.4
20260505180305 84 162 2.0 12.0 0.00 0.00 0.00 38 1009.5
20260505175804 84 267 3.0 12.0 0.00 0.00 0.00 40 1009.5
20260505175305 84 243 2.0 6.0 0.00 0.00 0.00 39 1009.5
20260505174304 84 180 3.0 7.0 0.00 0.00 0.00 40 1009.6
20260505173304 84 208 1.0 12.0 0.00 0.00 0.00 39 1009.7
20260505172804 84 269 2.0 12.0 0.00 0.00 0.00 40 1009.8